Wetterdaten: Montag, 05.09.2016
Datum Zeit Temp. A. Aussentemp2 Feuchte A. Luftdruck Regen Wind Richtung Richtung Sonnenschein Helligkeit Solar
05.09.2016 00:04 16,0 C 19,0 C 83 % 1012,7 hPa 0,0 l/m 23,4 km/h (4 Bft) W-SW22.5 255 0 min 0 lux 0 W/m
05.09.2016 00:09 16,0 C 18,9 C 83 % 1012,7 hPa 0,0 l/m 25,7 km/h (4 Bft) W-SW45 250 0 min 0 lux 0 W/m
05.09.2016 00:14 16,0 C 19,0 C 84 % 1012,7 hPa 0,0 l/m 25,1 km/h (4 Bft) W45 265 0 min 0 lux 0 W/m
05.09.2016 00:19 15,9 C 19,1 C 84 % 1012,7 hPa 0,0 l/m 22,3 km/h (4 Bft) W45 270 0 min 0 lux 0 W/m
05.09.2016 00:24 15,9 C 19,1 C 84 % 1012,7 hPa 0,0 l/m 30,6 km/h (5 Bft) W22.5 265 0 min 0 lux 0 W/m
05.09.2016 00:29 15,9 C 19,1 C 85 % 1012,7 hPa 0,0 l/m 23,8 km/h (4 Bft) W22.5 265 0 min 0 lux 0 W/m
05.09.2016 00:34 15,9 C 18,9 C 85 % 1012,7 hPa 0,0 l/m 25,3 km/h (4 Bft) W-SW22.5 250 0 min 0 lux 0 W/m
05.09.2016 00:39 15,8 C 18,7 C 85 % 1012,7 hPa 0,0 l/m 20,6 km/h (4 Bft) W-SW22.5 240 0 min 0 lux 0 W/m
05.09.2016 00:44 15,8 C 18,6 C 85 % 1012,7 hPa 0,0 l/m 23,0 km/h (4 Bft) W-SW67.5 250 0 min 0 lux 0 W/m
05.09.2016 00:49 15,7 C 18,6 C 85 % 1012,7 hPa 0,0 l/m 25,5 km/h (4 Bft) W-SW45 250 0 min 0 lux 0 W/m
05.09.2016 00:54 15,7 C 18,7 C 85 % 1012,7 hPa 0,0 l/m 19,3 km/h (3 Bft) W-SW45 255 0 min 0 lux 0 W/m
05.09.2016 00:59 15,7 C 18,8 C 85 % 1012,7 hPa 0,0 l/m 24,5 km/h (4 Bft) W-SW22.5 255 0 min 0 lux 0 W/m
05.09.2016 01:04 15,7 C 18,7 C 85 % 1012,7 hPa 0,0 l/m 18,3 km/h (3 Bft) W-SW22.5 250 0 min 0 lux 0 W/m
05.09.2016 01:09 15,7 C 18,8 C 85 % 1012,7 hPa 0,0 l/m 21,1 km/h (4 Bft) W-SW45 250 0 min 0 lux 0 W/m
05.09.2016 01:14 15,7 C 18,6 C 85 % 1012,7 hPa 0,0 l/m 22,1 km/h (4 Bft) W-SW22.5 250 0 min 0 lux 0 W/m
05.09.2016 01:19 15,8 C 18,6 C 85 % 1012,7 hPa 0,0 l/m 21,2 km/h (4 Bft) W-SW45 255 0 min 0 lux 0 W/m
05.09.2016 01:24 15,8 C 18,8 C 85 % 1012,7 hPa 0,0 l/m 24,6 km/h (4 Bft) W-SW45 255 0 min 0 lux 0 W/m
05.09.2016 01:29 15,8 C 18,7 C 85 % 1012,7 hPa 0,0 l/m 23,1 km/h (4 Bft) W-SW45 255 0 min 0 lux 0 W/m
05.09.2016 01:34 15,8 C 18,7 C 84 % 1012,7 hPa 0,0 l/m 23,5 km/h (4 Bft) W-SW45 250 0 min 0 lux 0 W/m
05.09.2016 01:39 15,8 C 18,6 C 84 % 1012,7 hPa 0,0 l/m 22,0 km/h (4 Bft) W-SW45 250 0 min 0 lux 0 W/m
05.09.2016 01:44 15,8 C 18,6 C 84 % 1012,7 hPa 0,0 l/m 25,0 km/h (4 Bft) W-SW22.5 255 0 min 0 lux 0 W/m
05.09.2016 01:49 15,8 C 18,7 C 84 % 1012,7 hPa 0,0 l/m 22,8 km/h (4 Bft) W-SW45 255 0 min 0 lux 0 W/m
05.09.2016 01:54 15,7 C 19,0 C 84 % 1012,7 hPa 0,0 l/m 17,5 km/h (3 Bft) W22.5 265 0 min 0 lux 0 W/m
05.09.2016 01:59 15,7 C 19,0 C 84 % 1012,7 hPa 0,0 l/m 15,5 km/h (3 Bft) W22.5 265 0 min 0 lux 0 W/m
05.09.2016 02:04 15,6 C 18,9 C 84 % 1012,7 hPa 0,0 l/m 17,5 km/h (3 Bft) W22.5 260 0 min 0 lux 0 W/m
05.09.2016 02:09 15,6 C 19,0 C 84 % 1012,7 hPa 0,0 l/m 15,8 km/h (3 Bft) W-SW22.5 255 0 min 0 lux 0 W/m
05.09.2016 02:14 15,6 C 18,9 C 84 % 1012,7 hPa 0,0 l/m 13,8 km/h (3 Bft) W-SW22.5 250 0 min 0 lux 0 W/m
05.09.2016 02:19 15,6 C 18,7 C 84 % 1012,7 hPa 0,0 l/m 15,9 km/h (3 Bft) W-SW22.5 255 0 min 0 lux 0 W/m
05.09.2016 02:24 15,6 C 19,0 C 84 % 1012,7 hPa 0,0 l/m 15,5 km/h (3 Bft) W-SW22.5 250 0 min 0 lux 0 W/m
05.09.2016 02:29 15,5 C 18,9 C 84 % 1012,7 hPa 0,0 l/m 22,8 km/h (4 Bft) W22.5 265 0 min 0 lux 0 W/m
05.09.2016 02:34 15,5 C 18,5 C 84 % 1012,7 hPa 0,0 l/m 19,8 km/h (3 Bft) W-SW22.5 245 0 min 0 lux 0 W/m
05.09.2016 02:39 15,5 C 18,5 C 84 % 1012,7 hPa 0,0 l/m 19,0 km/h (3 Bft) W-SW22.5 250 0 min 0 lux 0 W/m
05.09.2016 02:44 15,5 C 18,6 C 84 % 1012,7 hPa 0,0 l/m 17,7 km/h (3 Bft) W-SW22.5 255 0 min 0 lux 0 W/m
05.09.2016 02:49 15,5 C 18,5 C 84 % 1013,7 hPa 0,0 l/m 17,7 km/h (3 Bft) W-SW22.5 250 0 min 0 lux 0 W/m
05.09.2016 02:55 15,5 C 18,6 C 84 % 1013,7 hPa 0,0 l/m 17,5 km/h (3 Bft) W-SW45 250 0 min 0 lux 0 W/m
05.09.2016 02:59 15,4 C 18,5 C 84 % 1013,7 hPa 0,0 l/m 15,0 km/h (3 Bft) SW45 235 0 min 0 lux 0 W/m
05.09.2016 03:04 15,4 C 18,4 C 84 % 1013,7 hPa 0,0 l/m 14,8 km/h (3 Bft) W-SW22.5 240 0 min 0 lux 0 W/m
05.09.2016 03:09 15,3 C 18,2 C 85 % 1013,7 hPa 0,0 l/m 17,1 km/h (3 Bft) W-SW22.5 240 0 min 0 lux 0 W/m
05.09.2016 03:14 15,3 C 18,3 C 85 % 1013,7 hPa 0,0 l/m 13,7 km/h (3 Bft) W-SW22.5 240 0 min 0 lux 0 W/m
05.09.2016 03:19 15,2 C 18,3 C 85 % 1013,7 hPa 0,0 l/m 15,5 km/h (3 Bft) W-SW22.5 240 0 min 0 lux 0 W/m
05.09.2016 03:24 15,2 C 18,3 C 85 % 1013,7 hPa 0,0 l/m 15,9 km/h (3 Bft) W-SW22.5 240 0 min 0 lux 0 W/m
05.09.2016 03:29 15,2 C 18,3 C 85 % 1013,7 hPa 0,0 l/m 14,8 km/h (3 Bft) SW22.5 235 0 min 0 lux 0 W/m
05.09.2016 03:34 15,2 C 18,2 C 85 % 1013,7 hPa 0,0 l/m 20,5 km/h (4 Bft) W-SW45 245 0 min 0 lux 0 W/m
05.09.2016 03:39 15,2 C 18,1 C 86 % 1013,7 hPa 0,0 l/m 20,6 km/h (4 Bft) W-SW22.5 240 0 min 0 lux 0 W/m
05.09.2016 03:44 15,2 C 18,2 C 86 % 1013,7 hPa 0,0 l/m 19,3 km/h (3 Bft) W-SW22.5 245 0 min 0 lux 0 W/m
05.09.2016 03:49 15,2 C 18,1 C 86 % 1013,7 hPa 0,0 l/m 17,4 km/h (3 Bft) W-SW22.5 240 0 min 0 lux 0 W/m
05.09.2016 03:54 15,1 C 18,0 C 86 % 1013,7 hPa 0,0 l/m 19,9 km/h (4 Bft) W-SW22.5 240 0 min 0 lux 0 W/m
05.09.2016 03:59 15,1 C 18,0 C 86 % 1013,7 hPa 0,0 l/m 16,8 km/h (3 Bft) W-SW22.5 245 0 min 0 lux 0 W/m
05.09.2016 04:04 15,1 C 18,2 C 86 % 1013,7 hPa 0,0 l/m 17,1 km/h (3 Bft) W-SW22.5 240 0 min 0 lux 0 W/m
05.09.2016 04:09 15,1 C 18,2 C 86 % 1013,7 hPa 0,0 l/m 18,1 km/h (3 Bft) W-SW45 240 0 min 0 lux 0 W/m
05.09.2016 04:14 15,0 C 18,3 C 86 % 1013,7 hPa 0,0 l/m 15,3 km/h (3 Bft) W-SW22.5 250 0 min 0 lux 0 W/m
05.09.2016 04:19 15,2 C 18,2 C 86 % 1013,7 hPa 0,0 l/m 19,9 km/h (4 Bft) W-SW22.5 255 0 min 0 lux 0 W/m
05.09.2016 04:24 15,2 C 18,0 C 86 % 1013,7 hPa 0,0 l/m 17,8 km/h (3 Bft) W-SW45 240 0 min 0 lux 0 W/m
05.09.2016 04:29 15,2 C 18,2 C 86 % 1013,7 hPa 0,0 l/m 16,5 km/h (3 Bft) W-SW22.5 245 0 min 0 lux 0 W/m
05.09.2016 04:34 15,3 C 18,2 C 86 % 1013,7 hPa 0,0 l/m 18,8 km/h (3 Bft) W-SW45 245 0 min 0 lux 0 W/m
05.09.2016 04:39 15,3 C 18,2 C 86 % 1013,7 hPa 0,0 l/m 22,3 km/h (4 Bft) W-SW45 250 0 min 0 lux 0 W/m
05.09.2016 04:44 15,4 C 18,1 C 86 % 1013,7 hPa 0,0 l/m 20,3 km/h (4 Bft) W-SW22.5 250 0 min 0 lux 0 W/m
05.09.2016 04:49 15,4 C 18,3 C 86 % 1013,7 hPa 0,0 l/m 20,5 km/h (4 Bft) W-SW45 245 0 min 0 lux 0 W/m
05.09.2016 04:54 15,4 C 18,4 C 86 % 1013,7 hPa 0,0 l/m 22,3 km/h (4 Bft) W-SW67.5 255 0 min 0 lux 0 W/m
05.09.2016 04:59 15,4 C 18,2 C 86 % 1013,7 hPa 0,0 l/m 21,9 km/h (4 Bft) W-SW45 250 0 min 0 lux 0 W/m
05.09.2016 05:04 15,4 C 18,2 C 86 % 1013,7 hPa 0,0 l/m 21,7 km/h (4 Bft) W-SW22.5 250 0 min 0 lux 0 W/m
05.09.2016 05:09 15,4 C 18,2 C 86 % 1013,7 hPa 0,0 l/m 20,6 km/h (4 Bft) W-SW45 240 0 min 0 lux 0 W/m
05.09.2016 05:14 15,4 C 18,1 C 86 % 1013,7 hPa 0,0 l/m 25,5 km/h (4 Bft) W-SW45 250 0 min 0 lux 0 W/m
05.09.2016 05:19 15,4 C 18,2 C 86 % 1013,7 hPa 0,0 l/m 23,0 km/h (4 Bft) W-SW22.5 255 0 min 0 lux 0 W/m
05.09.2016 05:24 15,4 C 18,9 C 86 % 1014,7 hPa 0,0 l/m 18,8 km/h (3 Bft) W22.5 270 0 min 0 lux 0 W/m
05.09.2016 05:29 15,4 C 18,9 C 86 % 1014,7 hPa 0,0 l/m 12,7 km/h (3 Bft) W22.5 275 0 min 0 lux 0 W/m
05.09.2016 05:34 15,3 C 18,4 C 86 % 1014,7 hPa 0,0 l/m 17,7 km/h (3 Bft) W-SW22.5 245 0 min 0 lux 0 W/m
05.09.2016 05:39 15,2 C 18,1 C 86 % 1014,7 hPa 0,0 l/m 20,2 km/h (4 Bft) W22.5 260 0 min 0 lux 0 W/m
05.09.2016 05:44 15,2 C 18,0 C 86 % 1014,7 hPa 0,0 l/m 19,0 km/h (3 Bft) W-SW22.5 255 0 min 0 lux 0 W/m
05.09.2016 05:49 15,0 C 18,1 C 86 % 1014,7 hPa 0,0 l/m 19,1 km/h (3 Bft) W-SW22.5 250 0 min 0 lux 0 W/m
05.09.2016 05:54 15,0 C 18,1 C 86 % 1014,7 hPa 0,0 l/m 17,5 km/h (3 Bft) W-SW22.5 250 0 min 0 lux 0 W/m
05.09.2016 05:59 15,0 C 18,2 C 86 % 1014,7 hPa 0,0 l/m 17,2 km/h (3 Bft) W-SW45 255 0 min 0 lux 0 W/m
05.09.2016 06:04 15,0 C 18,2 C 86 % 1014,7 hPa 0,0 l/m 19,0 km/h (3 Bft) W-SW45 245 0 min 0 lux 0 W/m
05.09.2016 06:09 15,0 C 17,9 C 86 % 1014,7 hPa 0,0 l/m 18,0 km/h (3 Bft) W-SW22.5 250 0 min 0 lux 0 W/m
05.09.2016 06:14 15,0 C 17,8 C 87 % 1014,7 hPa 0,0 l/m 19,4 km/h (3 Bft) W-SW22.5 250 0 min 0 lux 0 W/m
05.09.2016 06:19 15,0 C 17,9 C 87 % 1014,7 hPa 0,0 l/m 23,6 km/h (4 Bft) W-SW22.5 245 0 min 0 lux 0 W/m
05.09.2016 06:24 15,0 C 17,8 C 87 % 1014,7 hPa 0,0 l/m 19,8 km/h (3 Bft) W-SW22.5 250 0 min 0 lux 0 W/m
05.09.2016 06:30 15,0 C 17,8 C 87 % 1014,7 hPa 0,0 l/m 22,8 km/h (4 Bft) W-SW45 250 0 min 0 lux 0 W/m
05.09.2016 06:34 15,0 C 17,8 C 87 % 1014,7 hPa 0,0 l/m 21,7 km/h (4 Bft) W-SW22.5 245 0 min 0 lux 0 W/m
05.09.2016 06:39 15,0 C 17,7 C 87 % 1014,7 hPa 0,0 l/m 18,6 km/h (3 Bft) W-SW45 255 0 min 78 lux 0 W/m
05.09.2016 06:44 15,0 C 17,8 C 87 % 1014,7 hPa 0,0 l/m 20,5 km/h (4 Bft) W-SW22.5 245 0 min 136 lux 0 W/m
05.09.2016 06:49 15,0 C 17,9 C 87 % 1014,7 hPa 0,0 l/m 17,5 km/h (3 Bft) W-SW22.5 255 0 min 372 lux 0 W/m
05.09.2016 06:54 15,0 C 18,1 C 87 % 1014,7 hPa 0,0 l/m 18,2 km/h (3 Bft) W-SW67.5 255 0 min 514 lux 0 W/m
05.09.2016 06:59 15,0 C 18,0 C 87 % 1014,7 hPa 0,0 l/m 18,6 km/h (3 Bft) W-SW22.5 250 0 min 917 lux 6 W/m
05.09.2016 07:04 15,0 C 17,9 C 87 % 1014,7 hPa 0,0 l/m 16,5 km/h (3 Bft) W-SW22.5 240 0 min 1,18 klux 8 W/m
05.09.2016 07:09 15,0 C 18,1 C 87 % 1014,7 hPa 0,0 l/m 16,3 km/h (3 Bft) W-SW22.5 255 0 min 1,73 klux 12 W/m
05.09.2016 07:14 15,0 C 18,4 C 87 % 1015,7 hPa 0,0 l/m 15,1 km/h (3 Bft) W22.5 275 0 min 1,78 klux 12 W/m
05.09.2016 07:19 15,0 C 18,1 C 87 % 1015,7 hPa 0,1 l/m 17,8 km/h (3 Bft) W-SW22.5 255 0 min 1,82 klux 12 W/m
05.09.2016 07:24 15,0 C 17,8 C 87 % 1015,7 hPa 0,0 l/m 21,1 km/h (4 Bft) W-SW45 240 0 min 1,96 klux 13 W/m
05.09.2016 07:29 15,0 C 17,6 C 87 % 1015,7 hPa 0,0 l/m 18,8 km/h (3 Bft) W-SW45 245 0 min 2,33 klux 16 W/m
05.09.2016 07:34 15,0 C 17,8 C 87 % 1015,7 hPa 0,0 l/m 17,6 km/h (3 Bft) W-SW45 240 0 min 2,49 klux 17 W/m
05.09.2016 07:39 15,0 C 17,7 C 86 % 1015,7 hPa 0,0 l/m 19,0 km/h (3 Bft) W-SW22.5 250 0 min 3,02 klux 21 W/m
05.09.2016 07:44 15,0 C 17,9 C 86 % 1015,7 hPa 0,0 l/m 16,5 km/h (3 Bft) W-SW22.5 250 0 min 3,60 klux 25 W/m
05.09.2016 07:49 15,0 C 17,7 C 86 % 1015,7 hPa 0,0 l/m 21,6 km/h (4 Bft) W-SW45 245 0 min 5,18 klux 35 W/m
05.09.2016 07:54 15,0 C 17,7 C 86 % 1015,7 hPa 0,0 l/m 22,7 km/h (4 Bft) W-SW22.5 250 0 min 5,53 klux 38 W/m
05.09.2016 07:59 15,0 C 17,7 C 86 % 1015,7 hPa 0,0 l/m 20,5 km/h (4 Bft) W-SW22.5 250 0 min 4,49 klux 31 W/m
05.09.2016 08:04 15,2 C 18,0 C 86 % 1015,7 hPa 0,0 l/m 20,5 km/h (4 Bft) W-SW22.5 255 0 min 4,81 klux 33 W/m
05.09.2016 08:09 15,3 C 18,0 C 86 % 1015,7 hPa 0,0 l/m 22,3 km/h (4 Bft) W-SW22.5 255 0 min 5,06 klux 35 W/m
05.09.2016 08:14 15,3 C 18,0 C 86 % 1015,7 hPa 0,0 l/m 21,1 km/h (4 Bft) W-SW45 255 0 min 5,90 klux 40 W/m
05.09.2016 08:19 15,4 C 18,0 C 86 % 1015,7 hPa 0,0 l/m 22,5 km/h (4 Bft) W45 260 0 min 6,43 klux 44 W/m
05.09.2016 08:24 15,5 C 18,2 C 85 % 1015,7 hPa 0,0 l/m 21,7 km/h (4 Bft) W45 260 0 min 7,83 klux 54 W/m
05.09.2016 08:29 15,5 C 18,5 C 85 % 1015,7 hPa 0,0 l/m 22,8 km/h (4 Bft) W-NW22.5 285 0 min 7,41 klux 51 W/m
05.09.2016 08:34 15,6 C 18,6 C 85 % 1015,7 hPa 0,0 l/m 20,6 km/h (4 Bft) W22.5 275 0 min 9,1 klux 63 W/m
05.09.2016 08:39 15,7 C 18,6 C 84 % 1015,7 hPa 0,0 l/m 23,8 km/h (4 Bft) W45 280 0 min 10,1 klux 69 W/m
05.09.2016 08:44 15,8 C 18,5 C 84 % 1015,7 hPa 0,0 l/m 25,8 km/h (4 Bft) W45 275 0 min 12,6 klux 86 W/m
05.09.2016 08:49 15,8 C 18,2 C 83 % 1015,7 hPa 0,0 l/m 22,0 km/h (4 Bft) W22.5 280 0 min 12,4 klux 85 W/m
05.09.2016 08:54 15,8 C 18,4 C 83 % 1015,7 hPa 0,0 l/m 21,5 km/h (4 Bft) W45 280 0 min 16,0 klux 109 W/m
05.09.2016 08:59 16,0 C 18,4 C 83 % 1016,7 hPa 0,0 l/m 17,1 km/h (3 Bft) W-NW22.5 290 0 min 16,3 klux 111 W/m
05.09.2016 09:04 16,2 C 18,5 C 83 % 1016,7 hPa 0,0 l/m 17,7 km/h (3 Bft) W-NW45 290 0 min 15,4 klux 105 W/m
05.09.2016 09:09 16,2 C 18,4 C 82 % 1016,7 hPa 0,0 l/m 19,5 km/h (3 Bft) W-NW22.5 295 0 min 17,5 klux 120 W/m
05.09.2016 09:14 16,3 C 18,3 C 81 % 1016,7 hPa 0,0 l/m 20,8 km/h (4 Bft) W-NW45 285 0 min 17,0 klux 116 W/m
05.09.2016 09:19 16,4 C 18,3 C 81 % 1016,7 hPa 0,0 l/m 22,0 km/h (4 Bft) W22.5 270 0 min 14,0 klux 96 W/m
05.09.2016 09:24 16,4 C 18,5 C 81 % 1016,7 hPa 0,0 l/m 21,4 km/h (4 Bft) W-NW22.5 285 0 min 13,0 klux 89 W/m
05.09.2016 09:29 16,4 C 18,3 C 80 % 1016,7 hPa 0,0 l/m 21,5 km/h (4 Bft) W-NW22.5 295 0 min 10,6 klux 73 W/m
05.09.2016 09:34 16,5 C 18,4 C 81 % 1016,7 hPa 0,0 l/m 21,9 km/h (4 Bft) W22.5 280 0 min 15,8 klux 108 W/m
05.09.2016 09:39 16,6 C 18,5 C 81 % 1016,7 hPa 0,0 l/m 20,4 km/h (4 Bft) W22.5 280 0 min 14,8 klux 101 W/m
05.09.2016 09:45 16,8 C 18,4 C 81 % 1016,7 hPa 0,0 l/m 19,0 km/h (3 Bft) W-NW22.5 290 0 min 16,2 klux 111 W/m
05.09.2016 09:49 16,9 C 18,3 C 80 % 1016,7 hPa 0,0 l/m 18,9 km/h (3 Bft) W-NW22.5 285 0 min 22,5 klux 154 W/m
05.09.2016 09:54 17,0 C 18,1 C 80 % 1016,7 hPa 0,0 l/m 19,9 km/h (4 Bft) W-NW22.5 290 0 min 22,9 klux 157 W/m
05.09.2016 09:59 17,1 C 18,4 C 80 % 1016,7 hPa 0,0 l/m 21,8 km/h (4 Bft) W22.5 280 0 min 21,1 klux 144 W/m
05.09.2016 10:05 17,1 C 18,4 C 79 % 1016,7 hPa 0,0 l/m 21,3 km/h (4 Bft) W22.5 280 0 min 21,3 klux 146 W/m
05.09.2016 10:09 17,2 C 18,3 C 79 % 1016,7 hPa 0,0 l/m 22,6 km/h (4 Bft) W22.5 280 0 min 25,2 klux 172 W/m
05.09.2016 10:14 17,4 C 18,4 C 79 % 1016,7 hPa 0,0 l/m 20,0 km/h (4 Bft) W-NW22.5 285 0 min 27,0 klux 185 W/m
05.09.2016 10:19 17,5 C 18,5 C 79 % 1016,7 hPa 0,0 l/m 20,5 km/h (4 Bft) W-NW22.5 290 0 min 26,9 klux 184 W/m
05.09.2016 10:24 17,5 C 18,3 C 78 % 1016,7 hPa 0,0 l/m 21,5 km/h (4 Bft) W-NW45 290 0 min 28,7 klux 196 W/m
05.09.2016 10:29 17,8 C 18,5 C 79 % 1016,7 hPa 0,0 l/m 21,8 km/h (4 Bft) W45 270 0 min 27,3 klux 187 W/m
05.09.2016 10:34 17,6 C 18,5 C 79 % 1016,7 hPa 0,0 l/m 23,7 km/h (4 Bft) W22.5 265 0 min 29,5 klux 202 W/m
05.09.2016 10:39 17,8 C 18,6 C 79 % 1016,7 hPa 0,0 l/m 24,1 km/h (4 Bft) W45 275 0 min 27,3 klux 187 W/m
05.09.2016 10:44 17,7 C 18,4 C 78 % 1016,7 hPa 0,0 l/m 20,8 km/h (4 Bft) W22.5 280 5 min 44,7 klux 306 W/m
05.09.2016 10:49 17,8 C 18,8 C 78 % 1016,7 hPa 0,0 l/m 18,8 km/h (3 Bft) W22.5 280 0 min 32,2 klux 220 W/m
05.09.2016 10:54 18,0 C 18,8 C 77 % 1016,7 hPa 0,0 l/m 18,7 km/h (3 Bft) W-NW22.5 290 5 min 45,4 klux 311 W/m
05.09.2016 10:59 18,3 C 18,8 C 78 % 1016,7 hPa 0,0 l/m 20,6 km/h (4 Bft) W-NW45 290 0 min 33,5 klux 229 W/m
05.09.2016 11:04 18,2 C 18,9 C 76 % 1016,7 hPa 0,0 l/m 22,5 km/h (4 Bft) W45 280 0 min 35,8 klux 245 W/m
05.09.2016 11:09 18,2 C 18,8 C 76 % 1017,7 hPa 0,0 l/m 21,4 km/h (4 Bft) W-NW45 295 0 min 24,1 klux 165 W/m
05.09.2016 11:14 18,4 C 18,9 C 76 % 1017,7 hPa 0,0 l/m 18,1 km/h (3 Bft) W-NW45 295 0 min 30,8 klux 211 W/m
05.09.2016 11:19 18,4 C 19,0 C 75 % 1017,7 hPa 0,0 l/m 19,1 km/h (3 Bft) W22.5 275 0 min 36,0 klux 246 W/m
05.09.2016 11:24 18,5 C 19,0 C 74 % 1017,7 hPa 0,0 l/m 19,3 km/h (3 Bft) NW22.5 310 0 min 36,0 klux 246 W/m
05.09.2016 11:29 18,6 C 19,1 C 75 % 1017,7 hPa 0,0 l/m 18,6 km/h (3 Bft) W45 265 0 min 36,6 klux 250 W/m
05.09.2016 11:34 18,6 C 19,1 C 74 % 1017,7 hPa 0,0 l/m 19,9 km/h (4 Bft) W-NW22.5 285 0 min 32,9 klux 225 W/m
05.09.2016 11:39 18,9 C 19,2 C 74 % 1017,7 hPa 0,0 l/m 22,4 km/h (4 Bft) W45 275 5 min 56,0 klux 383 W/m
05.09.2016 11:44 19,1 C 19,3 C 73 % 1017,7 hPa 0,0 l/m 21,5 km/h (4 Bft) W-NW22.5 285 5 min 53,4 klux 365 W/m
05.09.2016 11:49 19,1 C 19,4 C 73 % 1017,7 hPa 0,0 l/m 20,5 km/h (4 Bft) W-NW22.5 295 5 min 60,1 klux 411 W/m
05.09.2016 11:54 19,6 C 19,4 C 73 % 1017,7 hPa 0,0 l/m 21,8 km/h (4 Bft) W22.5 270 5 min 91,1 klux 623 W/m
05.09.2016 11:59 19,4 C 19,4 C 71 % 1017,7 hPa 0,0 l/m 23,0 km/h (4 Bft) W45 265 0 min 23,1 klux 158 W/m
05.09.2016 12:04 19,3 C 19,4 C 71 % 1017,7 hPa 0,0 l/m 19,8 km/h (3 Bft) W-NW22.5 285 0 min 45,6 klux 312 W/m
05.09.2016 12:09 19,8 C 19,5 C 71 % 1017,7 hPa 0,0 l/m 18,6 km/h (3 Bft) W-NW45 290 5 min 82,2 klux 562 W/m
05.09.2016 12:14 19,8 C 19,7 C 71 % 1017,7 hPa 0,0 l/m 22,9 km/h (4 Bft) W-NW45 285 0 min 43,4 klux 297 W/m
05.09.2016 12:19 19,6 C 19,6 C 71 % 1017,7 hPa 0,0 l/m 18,8 km/h (3 Bft) W-NW22.5 295 0 min 19,3 klux 132 W/m
05.09.2016 12:24 19,5 C 19,4 C 70 % 1017,7 hPa 0,0 l/m 18,0 km/h (3 Bft) W-NW22.5 300 0 min 24,3 klux 166 W/m
05.09.2016 12:29 19,6 C 19,6 C 71 % 1017,7 hPa 0,0 l/m 14,4 km/h (3 Bft) W22.5 270 0 min 26,1 klux 179 W/m
05.09.2016 12:34 19,6 C 19,6 C 71 % 1017,7 hPa 0,0 l/m 17,4 km/h (3 Bft) W22.5 280 0 min 24,0 klux 164 W/m
05.09.2016 12:39 19,6 C 19,6 C 70 % 1017,7 hPa 0,0 l/m 15,3 km/h (3 Bft) W-NW45 290 0 min 27,8 klux 190 W/m
05.09.2016 12:44 19,8 C 19,7 C 69 % 1017,7 hPa 0,0 l/m 20,5 km/h (4 Bft) W-NW45 285 0 min 29,3 klux 200 W/m
05.09.2016 12:49 19,8 C 19,7 C 70 % 1017,7 hPa 0,0 l/m 20,2 km/h (4 Bft) W-NW22.5 295 0 min 24,4 klux 167 W/m
05.09.2016 12:54 19,8 C 19,7 C 71 % 1017,7 hPa 0,0 l/m 20,0 km/h (4 Bft) W-NW22.5 285 0 min 21,7 klux 148 W/m
05.09.2016 12:59 19,6 C 19,7 C 69 % 1017,7 hPa 0,0 l/m 18,0 km/h (3 Bft) W-NW22.5 295 0 min 26,2 klux 179 W/m
05.09.2016 13:04 19,6 C 19,7 C 71 % 1017,7 hPa 0,0 l/m 18,0 km/h (3 Bft) W-NW22.5 295 0 min 21,4 klux 146 W/m
05.09.2016 13:09 19,6 C 19,7 C 72 % 1017,7 hPa 0,0 l/m 21,5 km/h (4 Bft) W-NW22.5 285 0 min 21,4 klux 146 W/m
05.09.2016 13:14 19,6 C 19,6 C 73 % 1017,7 hPa 0,0 l/m 21,4 km/h (4 Bft) W67.5 260 0 min 25,9 klux 177 W/m
05.09.2016 13:19 20,1 C 19,8 C 72 % 1017,7 hPa 0,0 l/m 17,8 km/h (3 Bft) W22.5 270 5 min 100 klux 684 W/m
05.09.2016 13:24 20,2 C 19,9 C 70 % 1017,7 hPa 0,0 l/m 19,9 km/h (4 Bft) W22.5 275 0 min 54,8 klux 375 W/m
05.09.2016 13:29 20,1 C 19,8 C 69 % 1018,7 hPa 0,0 l/m 16,7 km/h (3 Bft) W22.5 275 0 min 20,0 klux 137 W/m
05.09.2016 13:34 19,6 C 19,7 C 73 % 1018,7 hPa 0,0 l/m 20,4 km/h (4 Bft) W22.5 280 0 min 8,78 klux 60 W/m
05.09.2016 13:40 19,2 C 19,5 C 72 % 1018,7 hPa 0,0 l/m 16,9 km/h (3 Bft) W22.5 280 0 min 14,7 klux 101 W/m
05.09.2016 13:44 19,2 C 19,6 C 72 % 1018,7 hPa 0,0 l/m 18,1 km/h (3 Bft) W22.5 280 0 min 20,9 klux 143 W/m
05.09.2016 13:49 19,3 C 19,6 C 71 % 1018,7 hPa 0,0 l/m 18,7 km/h (3 Bft) W-NW22.5 285 0 min 21,8 klux 149 W/m
05.09.2016 13:54 19,6 C 19,8 C 71 % 1018,7 hPa 0,0 l/m 17,0 km/h (3 Bft) W45 275 0 min 23,9 klux 163 W/m
05.09.2016 13:59 19,6 C 20,0 C 72 % 1018,7 hPa 0,0 l/m 18,3 km/h (3 Bft) W22.5 270 0 min 27,6 klux 189 W/m
05.09.2016 14:04 19,7 C 20,0 C 69 % 1018,7 hPa 0,0 l/m 20,0 km/h (4 Bft) NW45 305 0 min 27,6 klux 189 W/m
05.09.2016 14:09 19,9 C 20,1 C 69 % 1018,7 hPa 0,0 l/m 15,6 km/h (3 Bft) NW45 305 0 min 34,4 klux 235 W/m
05.09.2016 14:14 19,8 C 20,1 C 68 % 1018,7 hPa 0,0 l/m 20,9 km/h (4 Bft) W-NW45 285 0 min 33,6 klux 230 W/m
05.09.2016 14:19 20,0 C 20,1 C 68 % 1018,7 hPa 0,0 l/m 14,5 km/h (3 Bft) NW45 310 0 min 33,6 klux 230 W/m
05.09.2016 14:25 20,2 C 20,2 C 69 % 1018,7 hPa 0,0 l/m 14,5 km/h (3 Bft) NW45 315 0 min 32,0 klux 219 W/m
05.09.2016 14:29 20,1 C 20,2 C 68 % 1018,7 hPa 0,0 l/m 14,7 km/h (3 Bft) W-NW45 285 0 min 22,5 klux 154 W/m
05.09.2016 14:34 20,1 C 20,1 C 70 % 1018,7 hPa 0,0 l/m 14,5 km/h (3 Bft) W22.5 280 0 min 26,4 klux 181 W/m
05.09.2016 14:39 20,3 C 20,0 C 69 % 1018,7 hPa 0,0 l/m 12,0 km/h (2 Bft) N-NW67.5 335 0 min 26,5 klux 181 W/m
05.09.2016 14:44 20,3 C 20,2 C 68 % 1018,7 hPa 0,0 l/m 15,7 km/h (3 Bft) W-NW22.5 295 0 min 37,9 klux 259 W/m
05.09.2016 14:49 20,3 C 20,3 C 69 % 1018,7 hPa 0,0 l/m 16,0 km/h (3 Bft) W-NW22.5 285 0 min 40,9 klux 280 W/m
05.09.2016 14:54 20,4 C 20,4 C 68 % 1018,7 hPa 0,0 l/m 13,8 km/h (3 Bft) NW45 310 0 min 40,9 klux 280 W/m
05.09.2016 14:59 20,4 C 20,4 C 68 % 1018,7 hPa 0,0 l/m 14,8 km/h (3 Bft) NW22.5 315 0 min 40,3 klux 276 W/m
05.09.2016 15:04 20,4 C 20,5 C 68 % 1018,7 hPa 0,0 l/m 12,6 km/h (3 Bft) W-NW22.5 300 0 min 38,9 klux 266 W/m
05.09.2016 15:09 20,4 C 20,6 C 68 % 1018,7 hPa 0,0 l/m 13,4 km/h (3 Bft) NW45 305 0 min 34,1 klux 233 W/m
05.09.2016 15:14 20,5 C 20,9 C 66 % 1018,7 hPa 0,0 l/m 12,8 km/h (3 Bft) W22.5 260 0 min 43,1 klux 295 W/m
05.09.2016 15:19 20,7 C 20,8 C 69 % 1018,7 hPa 0,0 l/m 12,8 km/h (3 Bft) W22.5 270 0 min 44,1 klux 302 W/m
05.09.2016 15:24 20,9 C 21,1 C 66 % 1018,7 hPa 0,0 l/m 11,8 km/h (2 Bft) W45 260 0 min 46,2 klux 316 W/m
05.09.2016 15:29 21,1 C 21,2 C 66 % 1018,7 hPa 0,0 l/m 10,8 km/h (2 Bft) W-NW67.5 285 5 min 51,1 klux 350 W/m
05.09.2016 15:34 21,2 C 21,2 C 67 % 1018,7 hPa 0,0 l/m 13,1 km/h (3 Bft) W45 260 0 min 37,0 klux 253 W/m
05.09.2016 15:39 21,5 C 21,4 C 66 % 1018,7 hPa 0,0 l/m 8,1 km/h (2 Bft) W-SW22.5 240 0 min 34,2 klux 234 W/m
05.09.2016 15:44 21,6 C 21,5 C 66 % 1018,7 hPa 0,0 l/m 5,2 km/h (1 Bft) W22.5 270 5 min 85,8 klux 587 W/m
05.09.2016 15:49 21,6 C 21,7 C 65 % 1018,7 hPa 0,0 l/m 10,6 km/h (2 Bft) W45 275 5 min 55,7 klux 381 W/m
05.09.2016 15:54 21,7 C 21,0 C 64 % 1018,7 hPa 0,0 l/m 7,9 km/h (2 Bft) SW 235 0 min 30,8 klux 211 W/m
05.09.2016 15:59 21,5 C 21,1 C 63 % 1018,7 hPa 0,0 l/m 9,8 km/h (2 Bft) W-NW45 300 5 min 51,2 klux 350 W/m
05.09.2016 16:04 21,5 C 21,2 C 62 % 1018,7 hPa 0,0 l/m 10,5 km/h (2 Bft) W22.5 280 0 min 25,5 klux 174 W/m
05.09.2016 16:09 21,4 C 21,4 C 64 % 1018,7 hPa 0,0 l/m 9,5 km/h (2 Bft) W22.5 280 0 min 21,8 klux 149 W/m
05.09.2016 16:14 21,4 C 21,3 C 64 % 1019,7 hPa 0,0 l/m 11,3 km/h (2 Bft) W-NW22.5 300 0 min 33,5 klux 229 W/m
05.09.2016 16:19 21,6 C 21,2 C 63 % 1019,7 hPa 0,0 l/m 6,8 km/h (2 Bft) NW 305 5 min 63,4 klux 434 W/m
05.09.2016 16:24 21,8 C 21,7 C 64 % 1019,7 hPa 0,0 l/m 11,3 km/h (2 Bft) W45 260 0 min 37,2 klux 254 W/m
05.09.2016 16:29 21,8 C 21,5 C 63 % 1019,7 hPa 0,0 l/m 8,8 km/h (2 Bft) W-NW22.5 285 0 min 16,2 klux 111 W/m
05.09.2016 16:34 21,7 C 21,5 C 64 % 1019,7 hPa 0,0 l/m 12,6 km/h (3 Bft) NW45 305 0 min 18,3 klux 125 W/m
05.09.2016 16:39 21,5 C 21,6 C 64 % 1019,7 hPa 0,0 l/m 10,1 km/h (2 Bft) W-NW22.5 295 0 min 14,0 klux 96 W/m
05.09.2016 16:44 21,5 C 21,5 C 65 % 1019,7 hPa 0,0 l/m 12,0 km/h (2 Bft) W-SW22.5 250 0 min 11,6 klux 79 W/m
05.09.2016 16:49 21,4 C 21,0 C 64 % 1019,7 hPa 0,0 l/m 10,4 km/h (2 Bft) W-SW45 245 0 min 14,0 klux 96 W/m
05.09.2016 16:54 21,7 C 21,3 C 63 % 1019,7 hPa 0,0 l/m 12,4 km/h (2 Bft) W22.5 280 5 min 53,4 klux 365 W/m
05.09.2016 16:59 21,9 C 22,2 C 62 % 1019,7 hPa 0,0 l/m 14,6 km/h (3 Bft) NW45 305 5 min 41,2 klux 282 W/m
05.09.2016 17:05 22,0 C 22,0 C 62 % 1019,7 hPa 0,0 l/m 9,9 km/h (2 Bft) NW22.5 305 6 min 41,2 klux 282 W/m
05.09.2016 17:09 22,1 C 21,9 C 61 % 1019,7 hPa 0,0 l/m 15,8 km/h (3 Bft) NW22.5 310 4 min 54,3 klux 371 W/m
05.09.2016 17:14 22,3 C 22,6 C 63 % 1019,6 hPa 0,0 l/m 14,1 km/h (3 Bft) W22.5 260 5 min 47,3 klux 324 W/m
05.09.2016 17:19 22,4 C 22,1 C 62 % 1019,6 hPa 0,0 l/m 6,5 km/h (2 Bft) W-SW22.5 255 5 min 41,3 klux 282 W/m
05.09.2016 17:24 22,3 C 22,3 C 61 % 1019,6 hPa 0,0 l/m 9,2 km/h (2 Bft) SW22.5 230 0 min 22,8 klux 156 W/m
05.09.2016 17:29 22,2 C 22,2 C 61 % 1019,7 hPa 0,0 l/m 11,0 km/h (2 Bft) W-SW45 250 0 min 19,4 klux 133 W/m
05.09.2016 17:34 22,3 C 21,6 C 62 % 1019,6 hPa 0,0 l/m 8,4 km/h (2 Bft) W67.5 260 0 min 18,9 klux 129 W/m
05.09.2016 17:39 22,3 C 22,1 C 61 % 1019,6 hPa 0,0 l/m 11,1 km/h (2 Bft) W-NW45 295 0 min 19,0 klux 130 W/m
05.09.2016 17:44 22,3 C 22,6 C 60 % 1019,6 hPa 0,0 l/m 16,1 km/h (3 Bft) W22.5 280 0 min 19,7 klux 135 W/m
05.09.2016 17:49 22,6 C 22,6 C 62 % 1019,6 hPa 0,0 l/m 13,1 km/h (3 Bft) W45 260 0 min 19,6 klux 134 W/m
05.09.2016 17:54 22,6 C 22,6 C 59 % 1019,6 hPa 0,0 l/m 13,2 km/h (3 Bft) W-NW22.5 300 0 min 15,0 klux 103 W/m
05.09.2016 17:59 22,5 C 22,4 C 62 % 1019,6 hPa 0,0 l/m 9,2 km/h (2 Bft) W45 260 0 min 23,9 klux 163 W/m
05.09.2016 18:04 22,4 C 22,0 C 60 % 1019,6 hPa 0,0 l/m 13,4 km/h (3 Bft) W-NW45 285 0 min 14,2 klux 97 W/m
05.09.2016 18:09 22,2 C 22,1 C 63 % 1019,7 hPa 0,0 l/m 10,0 km/h (2 Bft) NW45 305 0 min 11,8 klux 81 W/m
05.09.2016 18:14 22,0 C 21,9 C 63 % 1019,7 hPa 0,0 l/m 13,1 km/h (3 Bft) W-SW22.5 245 0 min 16,6 klux 114 W/m
05.09.2016 18:19 22,1 C 21,9 C 64 % 1019,7 hPa 0,0 l/m 12,6 km/h (3 Bft) W22.5 260 0 min 13,1 klux 90 W/m
05.09.2016 18:24 22,0 C 21,7 C 62 % 1019,7 hPa 0,0 l/m 5,6 km/h (2 Bft) W-NW 295 0 min 11,8 klux 81 W/m
05.09.2016 18:29 22,1 C 21,6 C 62 % 1019,7 hPa 0,0 l/m 10,5 km/h (2 Bft) W-NW22.5 295 0 min 10,7 klux 73 W/m
05.09.2016 18:34 22,1 C 21,3 C 62 % 1019,7 hPa 0,0 l/m 5,4 km/h (2 Bft) N-NW22.5 335 0 min 9,3 klux 64 W/m
05.09.2016 18:39 21,9 C 21,4 C 62 % 1019,7 hPa 0,0 l/m 8,0 km/h (2 Bft) W-NW22.5 290 0 min 7,33 klux 50 W/m
05.09.2016 18:44 21,8 C 21,4 C 62 % 1019,7 hPa 0,0 l/m 11,3 km/h (2 Bft) W-NW22.5 300 0 min 9,2 klux 63 W/m
05.09.2016 18:49 21,8 C 21,5 C 63 % 1019,7 hPa 0,0 l/m 9,0 km/h (2 Bft) W-NW 295 0 min 13,0 klux 89 W/m
05.09.2016 18:54 21,8 C 21,4 C 63 % 1019,7 hPa 0,0 l/m 9,6 km/h (2 Bft) W-NW 295 0 min 12,4 klux 85 W/m
05.09.2016 18:59 21,8 C 21,4 C 65 % 1019,7 hPa 0,0 l/m 6,8 km/h (2 Bft) W22.5 260 0 min 11,0 klux 75 W/m
05.09.2016 19:04 21,6 C 21,4 C 66 % 1019,7 hPa 0,0 l/m 6,5 km/h (2 Bft) W-SW 255 0 min 7,33 klux 50 W/m
05.09.2016 19:09 21,6 C 21,3 C 65 % 1019,7 hPa 0,0 l/m 7,0 km/h (2 Bft) W-SW 250 0 min 8,30 klux 57 W/m
05.09.2016 19:14 21,4 C 21,2 C 65 % 1019,7 hPa 0,0 l/m 4,7 km/h (1 Bft) W 260 0 min 7,89 klux 54 W/m
05.09.2016 19:19 21,4 C 21,1 C 63 % 1019,7 hPa 0,0 l/m 5,9 km/h (2 Bft) W 275 0 min 9,2 klux 63 W/m
05.09.2016 19:24 21,5 C 21,1 C 63 % 1019,7 hPa 0,0 l/m 4,4 km/h (1 Bft) W 270 5 min 9,4 klux 64 W/m
05.09.2016 19:29 21,6 C 21,2 C 64 % 1019,7 hPa 0,0 l/m 0,1 km/h (0 Bft) W 270 5 min 9,00 klux 62 W/m
05.09.2016 19:34 21,7 C 21,1 C 62 % 1019,7 hPa 0,0 l/m 0,3 km/h (0 Bft) W 270 5 min 8,09 klux 55 W/m
05.09.2016 19:39 21,6 C 21,1 C 62 % 1019,7 hPa 0,0 l/m 0,0 km/h (0 Bft) W 270 5 min 6,51 klux 45 W/m
05.09.2016 19:44 21,6 C 21,1 C 63 % 1019,7 hPa 0,0 l/m 0,0 km/h (0 Bft) W 270 5 min 5,18 klux 35 W/m
05.09.2016 19:49 21,5 C 21,0 C 64 % 1019,7 hPa 0,0 l/m 0,0 km/h (0 Bft) W 270 5 min 3,94 klux 27 W/m
05.09.2016 19:54 21,2 C 20,9 C 64 % 1019,7 hPa 0,0 l/m 0,0 km/h (0 Bft) W 270 5 min 2,88 klux 20 W/m
05.09.2016 19:59 21,0 C 20,8 C 64 % 1019,7 hPa 0,0 l/m 0,0 km/h (0 Bft) W 270 0 min 1,67 klux 11 W/m
05.09.2016 20:04 20,6 C 20,7 C 65 % 1020,7 hPa 0,0 l/m 0,0 km/h (0 Bft) W 270 0 min 1,22 klux 8 W/m
05.09.2016 20:10 20,1 C 20,6 C 66 % 1020,7 hPa 0,0 l/m 0,0 km/h (0 Bft) W 270 0 min 869 lux 0 W/m
05.09.2016 20:14 19,9 C 20,6 C 66 % 1020,7 hPa 0,0 l/m 0,0 km/h (0 Bft) W 270 0 min 676 lux 0 W/m
05.09.2016 20:19 19,7 C 20,5 C 67 % 1020,7 hPa 0,0 l/m 0,0 km/h (0 Bft) W 270 0 min 408 lux 0 W/m
05.09.2016 20:24 19,6 C 20,5 C 67 % 1020,7 hPa 0,0 l/m 0,0 km/h (0 Bft) W 270 0 min 247 lux 0 W/m
05.09.2016 20:29 19,4 C 20,5 C 67 % 1020,7 hPa 0,0 l/m 0,0 km/h (0 Bft) W 270 0 min 115 lux 0 W/m
05.09.2016 20:35 19,1 C 20,4 C 67 % 1020,7 hPa 0,0 l/m 0,0 km/h (0 Bft) W 270 0 min 42 lux 0 W/m
05.09.2016 20:39 18,9 C 20,5 C 68 % 1020,7 hPa 0,0 l/m 0,0 km/h (0 Bft) W 270 0 min 17 lux 0 W/m
05.09.2016 20:44 18,6 C 20,4 C 70 % 1020,7 hPa 0,0 l/m 0,0 km/h (0 Bft) W 270 0 min 6 lux 0 W/m
05.09.2016 20:49 18,5 C 20,3 C 69 % 1020,7 hPa 0,0 l/m 0,0 km/h (0 Bft) W 270 0 min 2 lux 0 W/m
05.09.2016 20:54 18,4 C 20,3 C 70 % 1020,7 hPa 0,0 l/m 0,0 km/h (0 Bft) W 270 0 min 0 lux 0 W/m
05.09.2016 21:00 18,4 C 20,2 C 71 % 1020,7 hPa 0,0 l/m 0,0 km/h (0 Bft) W 270 0 min 0 lux 0 W/m
05.09.2016 21:04 18,2 C 20,3 C 71 % 1020,7 hPa 0,0 l/m 0,0 km/h (0 Bft) W 270 0 min 80 lux 0 W/m
05.09.2016 21:09 18,0 C 20,2 C 71 % 1020,7 hPa 0,0 l/m 0,0 km/h (0 Bft) W 270 0 min 0 lux 0 W/m
05.09.2016 21:14 17,9 C 20,2 C 72 % 1020,7 hPa 0,0 l/m 0,0 km/h (0 Bft) W 270 0 min 0 lux 0 W/m
05.09.2016 21:19 17,9 C 20,2 C 72 % 1020,7 hPa 0,0 l/m 0,0 km/h (0 Bft) W 270 0 min 0 lux 0 W/m
05.09.2016 21:24 17,6 C 20,1 C 72 % 1020,7 hPa 0,0 l/m 0,0 km/h (0 Bft) W 270 0 min 0 lux 0 W/m
05.09.2016 21:29 17,6 C 20,1 C 73 % 1020,7 hPa 0,0 l/m 0,0 km/h (0 Bft) W 270 0 min 0 lux 0 W/m
05.09.2016 21:34 17,4 C 20,2 C 73 % 1021,7 hPa 0,0 l/m 0,0 km/h (0 Bft) W 270 0 min 0 lux 0 W/m
05.09.2016 21:39 17,3 C 20,1 C 73 % 1021,7 hPa 0,0 l/m 0,0 km/h (0 Bft) W 270 0 min 0 lux 0 W/m
05.09.2016 21:44 17,1 C 20,0 C 74 % 1021,7 hPa 0,0 l/m 0,0 km/h (0 Bft) W 270 0 min 0 lux 0 W/m
05.09.2016 21:49 17,1 C 20,0 C 76 % 1021,7 hPa 0,0 l/m 0,0 km/h (0 Bft) W 270 0 min 0 lux 0 W/m
05.09.2016 21:54 17,1 C 20,0 C 76 % 1021,7 hPa 0,0 l/m 0,0 km/h (0 Bft) W 270 0 min 0 lux 0 W/m
05.09.2016 21:59 16,9 C 19,9 C 75 % 1021,7 hPa 0,0 l/m 0,0 km/h (0 Bft) W 270 0 min 0 lux 0 W/m
05.09.2016 22:04 17,0 C 19,9 C 76 % 1021,7 hPa 0,0 l/m 0,0 km/h (0 Bft) W 270 0 min 0 lux 0 W/m
05.09.2016 22:09 17,0 C 20,0 C 76 % 1021,7 hPa 0,0 l/m 0,0 km/h (0 Bft) W-SW 250 0 min 0 lux 0 W/m
05.09.2016 22:14 17,0 C 19,9 C 76 % 1021,7 hPa 0,0 l/m 0,0 km/h (0 Bft) W-SW 250 0 min 0 lux 0 W/m
05.09.2016 22:19 16,9 C 20,0 C 76 % 1021,7 hPa 0,0 l/m 0,0 km/h (0 Bft) W-SW 250 0 min 0 lux 0 W/m
05.09.2016 22:24 16,8 C 19,8 C 76 % 1021,7 hPa 0,0 l/m 0,0 km/h (0 Bft) W-SW 250 0 min 0 lux 0 W/m
05.09.2016 22:29 16,6 C 19,8 C 77 % 1021,7 hPa 0,0 l/m 0,0 km/h (0 Bft) W-SW 250 0 min 0 lux 0 W/m
05.09.2016 22:34 16,4 C 19,8 C 77 % 1021,7 hPa 0,0 l/m 0,0 km/h (0 Bft) W-SW 250 0 min 0 lux 0 W/m
05.09.2016 22:39 16,4 C 19,8 C 78 % 1021,7 hPa 0,0 l/m 0,0 km/h (0 Bft) W-SW 250 0 min 0 lux 0 W/m
05.09.2016 22:44 16,4 C 19,8 C 78 % 1021,7 hPa 0,0 l/m 0,0 km/h (0 Bft) W-SW 250 0 min 0 lux 0 W/m
05.09.2016 22:49 16,3 C 19,8 C 78 % 1021,7 hPa 0,0 l/m 0,0 km/h (0 Bft) W-SW 250 0 min 0 lux 0 W/m
05.09.2016 22:54 16,2 C 19,7 C 78 % 1021,7 hPa 0,0 l/m 0,0 km/h (0 Bft) W-SW 250 0 min 0 lux 0 W/m
05.09.2016 22:59 16,2 C 19,7 C 78 % 1021,7 hPa 0,0 l/m 0,0 km/h (0 Bft) W-SW 250 0 min 0 lux 0 W/m
05.09.2016 23:04 16,2 C 19,7 C 79 % 1021,7 hPa 0,0 l/m 0,0 km/h (0 Bft) W-SW 250 0 min 0 lux 0 W/m
05.09.2016 23:10 16,2 C 19,7 C 79 % 1021,7 hPa 0,0 l/m 0,0 km/h (0 Bft) W-SW 250 0 min 0 lux 0 W/m
05.09.2016 23:14 16,1 C 19,8 C 79 % 1021,7 hPa 0,0 l/m 0,0 km/h (0 Bft) W-SW 250 0 min 0 lux 0 W/m
05.09.2016 23:19 16,0 C 19,8 C 79 % 1021,7 hPa 0,0 l/m 0,0 km/h (0 Bft) W-SW 250 0 min 0 lux 0 W/m
05.09.2016 23:24 16,0 C 19,7 C 79 % 1021,7 hPa 0,0 l/m 0,0 km/h (0 Bft) W-SW 250 0 min 0 lux 0 W/m
05.09.2016 23:29 16,0 C 19,6 C 80 % 1021,7 hPa 0,0 l/m 0,0 km/h (0 Bft) W-SW 250 0 min 0 lux 0 W/m
05.09.2016 23:35 16,0 C 19,6 C 80 % 1021,7 hPa 0,0 l/m 0,0 km/h (0 Bft) W-SW 250 0 min 0 lux 0 W/m
05.09.2016 23:39 16,0 C 19,6 C 80 % 1021,7 hPa 0,0 l/m 0,0 km/h (0 Bft) W-SW 250 0 min 0 lux 0 W/m
05.09.2016 23:44 16,1 C 19,6 C 80 % 1022,7 hPa 0,0 l/m 0,0 km/h (0 Bft) W-SW 250 0 min 0 lux 0 W/m
05.09.2016 23:49 16,1 C 19,6 C 80 % 1022,7 hPa 0,0 l/m 0,0 km/h (0 Bft) W-SW 250 0 min 0 lux 0 W/m
05.09.2016 23:54 16,1 C 19,7 C 81 % 1022,7 hPa 0,0 l/m 0,2 km/h (0 Bft) SW45 230 0 min 0 lux 0 W/m
05.09.2016 23:59 16,0 C 19,6 C 81 % 1022,7 hPa 0,0 l/m 0,0 km/h (0 Bft) S-SO 165 0 min 0 lux 0 W/m
_ Min-Zeit 04:14 07:29 17:54 00:04 - 19:39 - - - - -
Minimum _ 15,0 C 17,6 C 59 % 1012,7 hPa - 0,0 km/h (0 Bft) - - - - -
_ Max-Zeit 17:49 17:14 06:14 23:59 07:19 00:24 - - 17:05 13:19 13:19
Maximum _ 22,6 C 22,6 C 87 % 1022,7 hPa 0,1 l/m 30,6 km/h
W (5 Bft)
- - 6 min 100 klux 684 W/m
Durchschnitt _ 17,9 C 19,5 C 76 % 1017,3 hPa #0,1 l/m 14,1 km/h (3 Bft) W-SW - #2:10 h 13,4 klux 167 W/m